Dubai, UAE

12:24 PM +04 on April 21, 2018 (GMT +0400)
Dubai

Weather History for 41194 - May, 2013

Change the Weather History Date:

Saturday, May 25, 2013

  Actual Average Record
Temperature  
Mean Temperature 88 °F -  
Max Temperature 98 °F 100 °F - ()
Min Temperature 77 °F 79 °F - ()
Cooling Degree Days 22    
Growing Degree Days 38 (Base 50)    
Moisture  
Dew Point 67 °F    
Average Humidity 51    
Maximum Humidity 69    
Minimum Humidity 29    
Precipitation  
Precipitation 0.00 in 0.00 in - ()
Sea Level Pressure  
Sea Level Pressure 29.61 in    
Wind  
Wind Speed 8 mph ()    
Max Wind Speed 15 mph    
Max Gust Speed -    
Visibility 6.0 miles    
Events      
T = Trace of Precipitation, MM = Missing Value Source: Averaged Metar Reports

Daily Weather History Graph

Daily Weather History Graph

Search for Another Location

Airport or City:

Astronomy

May. 25, 2013 Rise Set
Actual Time 5:29 AM +04 7:01 PM +04
Civil Twilight 5:04 AM +04 7:26 PM +04
Nautical Twilight 4:34 AM +04 7:56 PM +04
Astronomical Twilight 4:03 AM +04 8:28 PM +04
Moon 7:24 PM +04 (5/25) 5:31 AM +04 (5/25)
Length of Visible Light 14h 22m
Length of Day
13h 31m
Full, 100% of the Moon is Illuminated
May 25
Full
May 31
Last Quarter
Jun 8
New
Jun 16
First Quarter
Jun 23
Full

Hourly Weather History & Observations

Time (+04) Temp. Heat Index Dew Point Humidity Pressure Visibility Wind Dir Wind Speed Gust Speed Precip Events Conditions
12:00 AM 82.4 °F 86.3 °F 69.8 °F 66% 29.62 in - South 8.1 mph - N/A   Clear
1:00 AM 81 °F - 68 °F 57% 29.62 in 6 mi South 10.4 mph - -  
1:00 AM 80.6 °F 83.2 °F 68.0 °F 65% 29.59 in - South 10.4 mph - N/A   Clear
2:00 AM 78.8 °F - 68.0 °F 69% 29.59 in - South 8.1 mph - N/A   Clear
3:00 AM 78.8 °F - 66.2 °F 65% 29.59 in - SSW 6.9 mph - N/A   Clear
4:00 AM 79 °F - 64 °F 51% 29.60 in 6 mi South 5.8 mph - -  
4:00 AM 78.8 °F - 64.4 °F 61% 29.59 in - South 5.8 mph - N/A   Clear
5:00 AM 77.0 °F - 64.4 °F 65% 29.59 in - South 6.9 mph - N/A   Clear
6:00 AM 77.0 °F - 62.6 °F 61% 29.62 in - SSW 5.8 mph - N/A   Clear
7:00 AM 78 °F - 64 °F 52% 29.65 in 6 mi South 8.1 mph - -  
7:00 AM 78.8 °F - 64.4 °F 61% 29.62 in - South 8.1 mph - N/A   Clear
8:00 AM 82.4 °F 83.9 °F 64.4 °F 54% 29.65 in - South 9.2 mph - N/A   Clear
9:00 AM 86.0 °F 88.2 °F 66.2 °F 51% 29.65 in - SSW 11.5 mph - N/A   Clear
10:00 AM 89 °F - 67 °F 38% 29.67 in 6 mi SSW 9.2 mph - -  
10:00 AM 89.6 °F 92.2 °F 66.2 °F 46% 29.65 in - SSW 9.2 mph - N/A   Clear
11:00 AM 93.2 °F 94.1 °F 62.6 °F 36% 29.65 in - Variable 8.1 mph - N/A   Clear
12:00 PM 95.0 °F 94.4 °F 59.0 °F 30% 29.65 in - SW 8.1 mph - N/A   Clear
1:00 PM 96 °F - 67 °F 29% 29.63 in 6 mi West 8.1 mph - -  
1:00 PM 95.0 °F 99.5 °F 68.0 °F 41% 29.62 in - West 8.1 mph - N/A   Clear
2:00 PM 95.0 °F 99.5 °F 68.0 °F 41% 29.59 in - WNW 12.7 mph - N/A   Clear
3:00 PM 91.4 °F 98.4 °F 71.6 °F 52% 29.59 in - NW 15.0 mph - N/A   Clear
4:00 PM 92 °F - 71 °F 42% 29.59 in 6 mi NW 12.7 mph - -  
4:00 PM 91.4 °F 98.4 °F 71.6 °F 52% 29.56 in - NW 12.7 mph - N/A   Clear
5:00 PM 91.4 °F 98.4 °F 71.6 °F 52% 29.56 in - NW 12.7 mph - N/A   Clear
6:00 PM 87.8 °F 93.8 °F 71.6 °F 58% 29.56 in - NNW 9.2 mph - N/A   Clear
7:00 PM 88 °F - 63 °F 34% 29.59 in 6 mi NW 8.1 mph - -  
7:00 PM 87.8 °F 88.5 °F 62.6 °F 43% 29.59 in - NW 8.1 mph - N/A   Clear
8:00 PM 89.6 °F 92.2 °F 66.2 °F 46% 29.59 in - ENE 4.6 mph - N/A   Clear
9:00 PM 87.8 °F 90.4 °F 66.2 °F 49% 29.62 in - East 3.5 mph - N/A   Clear
10:00 PM 88 °F - 67 °F 40% 29.63 in 6 mi 3.5 mph - -  
10:00 PM 87.8 °F 91.4 °F 68.0 °F 52% 29.62 in - South 3.5 mph - N/A   Clear
11:00 PM 87.8 °F 93.8 °F 71.6 °F 58% 29.62 in - East 5.8 mph - N/A   Clear